To NAV CANADA Home Page Login to a new session Search on AWWS site Feedback and Comments Disclaimer Vers la page française équivalente Tips FAQ What's new on the site To the Forecasts and Observations / NOTAM section To "File a Flight Plan" website Publications and other links Update of the User's profile FIC Telephone Numbers My Weather Data Folder Route Weather Data Regional Weather Data Local Weather Data To the Forecasts and Observations / NOTAM section
Request Generated 08/01/2015 at 20:14:12 UTC . Weather information available at that time is displayed.

METAR/TAF

ST. LEONARD/NB    

LWIS CYSL 012000Z AUTO 24003KT 200V280 18/15 A2962=
LWIS CYSL 011900Z AUTO 06003KT 290V100 17/15 A2962=
LWIS CYSL 011800Z AUTO 28010G18KT 16/14 A2964=

CYSL - No TAF is issued for this station

Your time UTC time
Weather data provided by Environment Canada and NAV CANADA